K5SJT Weather Reports


time (UTC)temp
C
wind
direction
speed
KPH
gust
KPH
rain 1hr
cm
rain 24hr
cm
rain mn
cm
humidity
%
barometer
mb
20260504060105 17 192 0.0 4.8 0.00 0.00 0.00 59 1011.6
20260504050002 18 207 1.6 8.0 0.00 0.00 0.00 59 1012.6
20260504044600 18 193 0.0 6.4 0.00 0.00 0.00 59 1013.0
20260504043106 18 188 1.6 6.4 0.00 0.00 0.00 58 1012.9
20260504041557 18 169 1.6 8.0 0.00 0.00 0.00 57 1012.8
20260504040057 18 207 1.6 4.8 0.00 0.00 0.00 58 1013.2
20260504034557 18 185 1.6 6.4 0.00 0.00 0.00 58 1012.9
20260504033115 19 189 0.0 6.4 0.00 0.00 0.00 56 1012.8
20260504031603 19 160 0.0 8.0 0.00 0.00 0.00 55 1012.7
20260504030058 20 136 1.6 8.0 0.00 0.00 0.00 53 1012.7
20260504024602 20 171 1.6 6.4 0.00 0.00 0.00 52 1012.8
20260504023059 20 157 3.2 6.4 0.00 0.00 0.00 50 1012.8
20260504021558 21 180 3.2 9.7 0.00 0.00 0.00 47 1012.6
20260504020058 21 215 0.0 12.9 0.00 0.00 0.00 47 1012.5
20260504014559 21 191 1.6 8.0 0.00 0.00 0.00 45 1012.6
20260504013109 22 186 3.2 11.3 0.00 0.00 0.00 44 1012.8
20260504011558 22 179 3.2 9.7 0.00 0.00 0.00 43 1012.6
20260504004621 22 207 1.6 9.7 0.00 0.00 0.00 40 1012.9
20260504003101 23 175 4.8 9.7 0.00 0.00 0.00 39 1012.8
20260504001604 23 183 3.2 14.5 0.00 0.00 0.00 38 1012.7
20260503234557 23 275 4.8 14.5 0.00 0.00 0.00 38 1013.0
20260503233058 23 163 6.4 14.5 0.00 0.00 0.00 38 1012.9
20260503231559 23 241 3.2 9.7 0.00 0.00 0.00 38 1013.1
20260503230112 24 280 4.8 12.9 0.00 0.00 0.00 38 1013.1
20260503224558 24 180 4.8 14.5 0.00 0.00 0.00 38 1013.3
20260503223100 24 188 4.8 12.9 0.00 0.00 0.00 37 1013.6
20260503221558 24 240 3.2 12.9 0.00 0.00 0.00 37 1013.7
20260503214606 25 252 4.8 9.7 0.00 0.00 0.00 37 1013.7
20260503213057 25 234 4.8 11.3 0.00 0.00 0.00 35 1014.0
20260503211604 25 173 6.4 14.5 0.00 0.00 0.00 36 1014.4
20260503210057 26 306 3.2 11.3 0.00 0.00 0.00 36 1014.7
20260503204559 25 176 4.8 12.9 0.00 0.00 0.00 36 1015.0
20260503203057 26 274 3.2 17.7 0.00 0.00 0.00 37 1015.3
20260503201557 25 183 4.8 14.5 0.00 0.00 0.00 37 1015.7
20260503200057 25 192 6.4 14.5 0.00 0.00 0.00 37 1016.0
20260503194557 25 198 1.6 9.7 0.00 0.00 0.00 42 1016.0
20260503193059 25 146 3.2 11.3 0.00 0.00 0.00 39 1016.6
20260503191557 26 239 8.0 19.3 0.00 0.00 0.00 35 1016.7
20260503190101 25 183 4.8 11.3 0.00 0.00 0.00 38 1017.0
20260503184607 25 207 4.8 12.9 0.00 0.00 0.00 36 1017.2
20260503183058 25 144 3.2 16.1 0.00 0.00 0.00 40 1017.4
20260503181602 24 192 4.8 17.7 0.00 0.00 0.00 40 1017.6
20260503180057 24 215 4.8 20.9 0.00 0.00 0.00 40 1018.2
20260503174616 24 239 8.0 19.3 0.00 0.00 0.00 38 1018.5
20260503173101 23 172 6.4 14.5 0.00 0.00 0.00 40 1018.6
20260503171558 23 198 3.2 14.5 0.00 0.00 0.00 44 1019.1
20260503160105 22 192 4.8 12.9 0.00 0.00 0.00 46 1019.9
20260503150104 19 194 3.2 14.5 0.00 0.00 0.00 54 1020.3
20260503100119 10 236 0.0 0.0 0.00 0.00 0.00 81 1019.0
20260503081606 11 236 0.0 0.0 0.00 0.00 0.00 78 1019.2
20260503071556 12 236 0.0 0.0 0.00 0.00 0.00 76 1019.2